User: anonymous   Login
Location: Bakov nad Jizerou
(50.4784°N, 14.9394°E)
Time: 17:25:06
(UTC+00:00)
Language:

Cosmos 1110 Rocket - Orbit

View from above orbital plane
View from above orbital plane
View from above satellite
View from above satellite

Ground track
Ground track

The orbit data is extracted from the following two-line orbital elements,

1 11427U 79060B   21269.66952790  .00000026  00000-0  17610-4 0  9998
2 11427  74.0192  28.8301 0019527 157.0740 203.1290 14.37471085212136
Epoch (UTC): 26 September 2021 16:04:07
Eccentricity: 0.0019527
inclination: 74.0192°
perigee height: 753 km
apogee height: 781 km
right ascension of ascending node: 28.8301°
argument of perigee: 157.0740°
revolutions per day: 14.37471085
mean anomaly at epoch: 203.1290°
orbit number at epoch: 21213

The dashed part of the orbit path shows where the satellite is in the earth's shadow,  

DLR